Georgetown, SC

11:39 PM EDT on June 23, 2017 (GMT -0400)
Debordieu | | Change Station
Active Advisory: Beach Hazard Statement

Elev 36 ft 33.38 °N, 79.18 °W | Updated 12 minutes ago

Clear
Clear
79.7 °F
Feels Like 85 °F
N
2.0
Wind Variable Wind from WSW
Gusts 4.0 mph

Today
High -- | Low -- °F
--% Chance of Precip.
Yesterday
High -- | Low -- °F
Precip. -- in
Pressure 30.01 in
Visibility 10.0 miles
Clouds Clear
Heat Index 85 °F
Dew Point 76 °F
Humidity 88%
Rainfall 0.01 in
Snow Depth Not available.
6:08 AM 8:30 PM
New Moon, 0% visible
METAR KGGE 240335Z AUTO 19010G15KT 10SM CLR 25/25 A3001 RMK AO2
Pressure 30.01 in
Visibility 10.0 miles
Clouds Clear
Heat Index 85 °F
Dew Point 76 °F
Humidity 88%
Rainfall 0.01 in
Snow Depth Not available.
6:08 AM 8:30 PM
New Moon, 0% visible
METAR KGGE 240335Z AUTO 19010G15KT 10SM CLR 25/25 A3001 RMK AO2

Get Your Daily Forecast Email!

Thanks for signing up!

Be on the lookout for a verification email in your inbox.

You'll start receiving severe weather alerts in your inbox..

×

10-Day Weather Forecast

Almanac

Astronomy

Jun. 23, 2017 Rise Set
Actual Time
Civil Twilight
Nautical Twilight
Astronomical Twilight
Moon
Length of Visible Light
Length of Day
Tomorrow will be .
, % of the Moon is Illuminated

Today's Extremes

State Highs State Lows

Community

WunderPhotos

Category 6

Welcome to Category 6. This is the collective home for Weather Underground's featured writeups by Dr. Jeff Masters (right), Bob Henson (left), Chris Burt, and other regular contributors.

Nearby

Air Quality

  Air Quality AQ Index Pollutant
Not available.

Snow Depth

Station Depth Elevation

Earthquake Activity

City Distance Mag. Time & Date
Minimum magnitude displayed is 2.5.

Coastal Water Temperatures

Place Temperature

Stations

Nearby Weather Stations

Station Location Temp. Windchill Dew Point Humidity Wind Precip. Elev Updated Type
                   

Watches & Warnings

Beach Hazard Statement
Issued: 11:10 PM EDT Jun. 23, 2017 – National Weather Service

... Beach hazards statement remains in effect through Saturday
evening...

The National Weather Service in Wilmington continues a beach hazards
statement which is in effect tonight and Saturday... ending at 8 PM
Saturday night.

Southwest winds around 20 mph with higher gusts will continue to
produce a strong longshore current. These strong currents will affect
the beaches of Pender... New Hanover... Horry and Georgetown counties.

27